www.pogodaiklimat.ru

Погода и климат >> Архив погоды >> Россия >> Ямало-Ненецкий АО >> Тамбей


ПОГОДА в Тамбее

  • Прогноз погоды в Тамбее
  • Монитор погоды в Тамбее

АРХИВ ПОГОДЫ в Тамбее

Время (UTC), дата Ветер
(напр.,м/с)
 
Видим.   Явления Облачность Т
(С)
Тd
(С)
f
(%)
Тe
(С)
Тes
(С)
Комфортность P
(гПа)
Po
(гПа)
Тmin
(С)
Tmax
(С)
R
(мм)
R24
(мм)
S
(см)
18 16.08 В 5 н/о н/о +11.3 +11.5 101 +8 +8 1009.0 1008.0
21 16.08 В 5 н/о н/о +10.5 +11.1 104 +7 +7 1006.3 1005.3
00 17.08 ЮВ 4 н/о н/о +10.5 +11.1 104 +8 +8 1005.0 1004.0
03 17.08 В 4 н/о н/о +10.7 +11.3 104 +8 +8 1003.7 1002.7
06 17.08 З 6 н/о н/о +14.6 +14.6 100 +13 +13 1003.6 1002.7
09 17.08 ЮЗ 5 н/о н/о +16.6 +12.1 75 +16 +16 1004.9 1004.0
12 17.08 З 3 н/о н/о +14.1 +12.7 91 +13 +13 1006.3 1005.3
15 17.08 З 3 н/о н/о +12.8 +12.0 95 +11 +11 1006.3 1005.3
18 17.08 З 4 н/о н/о +10.5 +10.8 102 +8 +8 1007.7 1006.7
21 17.08 С 6 н/о н/о +8.9 +9.5 104 +5 +5 1010.3 1009.3
00 18.08 С 6 н/о н/о +8.7 +8.6 99 +5 1013.0 1012.0
03 18.08 СЗ 6 н/о н/о +8.2 +8.1 99 +4 +4 1015.7 1014.7
06 18.08 СЗ 6 н/о н/о +9.3 +8.1 92 +5 +5 1017.0 1016.0
09 18.08 СЗ 6 н/о н/о +9.5 +6.9 84 +6 +6 1019.7 1018.7
12 18.08 СЗ 5 н/о н/о +8.7 +6.3 85 +5 +5 1021.0 1020.0
15 18.08 З 4 н/о н/о +7.6 +6.4 92 +4 +4 1023.7 1022.7
18 18.08 З 1 н/о н/о +6.3 +5.4 94 +5 +5 1023.7 1022.7
21 18.08 З 4 н/о н/о +6.5 +6.1 97 +3 +3 1025.0 1024.0
00 19.08 ЮЗ 4 н/о н/о +5.3 +5.6 102 +1 +1 1025.0 1024.0
03 19.08 ЮЗ 4 н/о н/о +8.5 +8.6 101 +5 +5 1026.3 1025.3
06 19.08 Ю 4 н/о н/о +10.7 +10.5 99 +8 +8 1026.3 1025.3
09 19.08 ЮЗ 3 н/о н/о +12.5 +11.6 94 +11 +11 1026.3 1025.3
12 19.08 ЮЗ 4 н/о н/о +13.9 +11.8 87 +12 +12 1026.3 1025.3
15 19.08 Ю 1 н/о н/о +13.3 +11.7 90 +13 +13 1027.7 1026.7
18 19.08 Ю 3 н/о н/о +10.4 +10.5 101 +8 +8 1027.7 1026.7
21 19.08 ЮЗ 3 н/о н/о +10.5 +10.8 102 +8 +8 1027.7 1026.7
00 20.08 ЮЗ 3 н/о н/о +10.6 +11.0 103 +8 +8 1029.0 1028.0
03 20.08 Ю 4 н/о н/о +10.9 +11.5 104 +8 +8 1029.0 1028.0
06 20.08 Ю 3 н/о н/о +12.6 +12.3 98 +11 +11 1029.0 1028.0
09 20.08 В 2 н/о н/о +12.4 +11.8 96 +11 +11 1029.0 1028.0
12 20.08 ЮВ 3 н/о н/о +11.8 +11.5 98 +10 +10 1029.0 1028.0
15 20.08 ЮВ 4 н/о н/о +11.0 +10.8 99 +8 +8 1029.0 1028.0
18 20.08 Ю 3 н/о н/о +9.4 +9.5 101 +7 +7 1029.0 1028.0
21 20.08 Ю 2 н/о н/о +9.2 +9.6 103 +7 +7 1029.0 1028.0
00 21.08 Ю 4 н/о н/о +8.8 +9.4 104 +5 +5 1027.7 1026.7
03 21.08 ЮВ 4 н/о н/о +9.3 +9.9 104 +6 +6 1027.7 1026.7
06 21.08 ЮВ 5 н/о н/о +9.5 +10.1 104 +6 +6 1026.3 1025.3
09 21.08 ЮВ 5 н/о н/о +9.9 +10.2 102 +6 +7 1025.0 1024.0
12 21.08 ЮВ 4 н/о н/о +10.1 +10.2 101 +7 +7 1023.7 1022.7
15 21.08 ЮВ 5 н/о н/о +10.0 +10.0 100 +7 +7 1022.3 1021.3
18 21.08 Ю 4 н/о н/о +8.7 +8.7 100 +5 +5 1019.7 1018.7
21 21.08 Ю 4 н/о н/о +7.6 +7.3 98 +4 +4 1018.3 1017.3
00 22.08 Ю 3 н/о н/о +7.1 +6.7 97 +4 +4 1017.0 1016.0
03 22.08 ЮВ 3 н/о н/о +9.8 +9.0 95 +7 +7 1015.7 1014.7
06 22.08 ЮВ 6 н/о н/о +12.4 +10.5 88 +10 +10 1013.0 1012.0
09 22.08 Ю 8 н/о н/о +18.0 +9.9 59 +17 +17 1011.6 1010.7
12 22.08 ЮВ 7 н/о н/о +12.4 +11.3 93 +9 +9 1010.3 1009.3
15 22.08 ЮВ 4 н/о н/о +11.6 +11.4 99 +9 +9 1009.0 1008.0
18 22.08 Ю 4 н/о н/о +10.1 +10.2 101 +7 +7 1007.7 1006.7
21 22.08 ЮЗ 6 н/о н/о +8.5 +8.8 102 +4 +4 1007.7 1006.7
00 23.08 З 7 н/о н/о +7.7 +8.1 103 +3 1007.7 1006.7
03 23.08 З 9 н/о н/о +7.6 +7.6 100 +2 1007.7 1006.7
06 23.08 З 10 н/о н/о +8.5 +7.7 95 +3 1007.7 1006.7
09 23.08 З 9 н/о н/о +9.5 +6.9 84 +5 1007.7 1006.7
12 23.08 З 9 н/о н/о +8.0 +5.6 85 +3 1009.0 1008.0

 

Местоположение метеостанции Тамбей (Ямало-Ненецкий АО, Россия): широта 71.48 долгота 71.82 высота над уровнем моря 8 м.

В архиве по умолчанию представлена погода в Тамбее за последнюю неделю. Архивные данные за месяц целиком и за предыдущие месяцы, начиная с января 2011 года, Вы можете получить, выбрав интересующий диапазон дат из раскрывающегося списка и нажав кнопку "Ввод!".


*Определитесь, кто Вы:
робот инопланетянин человек

Внимание! Время в таблицах - всемирное. Для получения местного времени необходимо прибавить поправку, которая равна 5 ч.

Смотрите также архив погоды в соседних городах и на ближайших метеорологических станциях:

Погода в Сеяхе (Ямало-Ненецкий АО, Россия) (148 км)
Погода в Имени Попова (Ямало-Ненецкий АО, Россия) (214 км)
Погода в Гыде (Ямало-Ненецкий АО, Россия) (248 км)
Погода в Марресале (Ямало-Ненецкий АО, Россия) (270 км)
Погода в Антипаюте (Ямало-Ненецкий АО, Россия) (327 км)
Погода в Усть-Каре (Ненецкий АО, Россия) (357 км)
Погода на Острове Диксон (Красноярский край, Россия) (365 км)
Погода в Сопочной Карге (Красноярский край, Россия) (382 км)
Погода в Амдерме (Ненецкий АО, Россия) (419 км)
Погода в Новом Порте (Ямало-Ненецкий АО, Россия) (425 км)

Пояснения к столбцам:

Ветер - указаны скорость ветра в м/с - средняя за 10 мин, порывы в срок и между сроками (в фигурных скобках) и направление, откуда дует ветер: С - северный, СВ - северо-восточный, В - восточный, ЮВ - юго-восточный, Ю - южный, ЮЗ - юго-западный, З - западный, СЗ - северо-западный.
Видимость - горизонтальная дальность видимости в метрах или километрах. При видимости от 1 до 10 км при отсутствии осадков обычно наблюдается дымка, при ухудшении видимости до 1 км и менее - туман. В сухую погоду видимость может ухудшаться дымом, пылью или мглою.
Явления - указаны атмосферные явления, наблюдавшиеся в срок или в последний час перед сроком; фигурными скобками обозначены явления, наблюдавшиеся между сроками (за 1-3 часа до срока); квадратными скобками обозначены град или гололедные отложения с указанием их диаметра в мм.
Облачность - указаны через наклонную черту общая и нижняя облачность в баллах и высота нижней границы облаков в метрах; квадратными скобками обозначены формы облаков: Ci - перистые, Cs - перисто-слоистые, Cc - перисто-кучевые, Ac - высококучевые, As - высокослоистые, Sc - слоисто-кучевые, Ns - слоисто-дождевые, Cu - кучевые, Cb - кучево-дождевые. Подробнее классификацию облаков см. в Атласе облаков (PDF).
T - Температура воздуха - температура, измеренная на высоте 2 м над землей.
Td - Температура точки росы - температура, при понижении до которой содержащийся в воздухе водяной пар достигнет насыщения.
f - Относительная влажность воздуха - влажноcть воздуха, измеренная на высоте 2 м над землей.
Te - Эффективная температура - температура, которую ощущает одетый по сезону человек в тени. Характеристика душности погоды. При расчете учитывается влияние влажности воздуха и скорости ветра на теплоощущения человека.
Tes - Эффективная температура на солнце - температура, которую ощущает человек, с поправкой на солнечный нагрев. Характеристика знойности погоды. Зависит от высоты солнца над горизонтом, облачности и скорости ветра. Ночью, в пасмурную погоду, а также при ветре 12 м/с и более поправка равна нулю.
P - Атмосферное давление - приведенное к уровню моря атмосферное давление.
Po - Атмосферное давление - измеренное на уровне метеостанции атмосферное давление.
Tmin - Минимальная температура - минимум температуры воздуха на высоте 2 м над землей.
Tmax - Максимальная температура - максимум температуры воздуха на высоте 2 м над землей.
R - Количество осадков - Количество выпавших осадков за период времени, мм. При наведении курсора мыши на число - период времени, за который выпало указанное количество осадков.
R24 - Количество осадков - Количество выпавших осадков за 24 часа, мм.
S - Снежный покров - Высота снежного покрова, см. При наведении курсора мыши на число - состояние снежного покрова и степень покрытия местности в баллах.